Wind_Speed
21 20 18 16 15 14 13 13 13 14 14 14 16 16 15 15 17 17 17 17 17 17 18 19 20 20 21 23 24 26 28 30 31 31 31 30 29 29 30 31 31 31
22 20 17 15 14 13 13 12 12 14 14 14 16 17 17 18 20 21 21 22 22 21 22 22 22 22 23 24 25 28 29 30 30 30 31 32 31 32 33 32 32 33
22 20 17 16 15 14 14 14 14 15 16 16 17 17 18 20 21 23 24 25 26 26 26 26 26 25 26 26 27 29 29 29 30 30 33 36 35 35 35 34 34 34
22 20 17 17 18 17 16 17 17 16 16 17 17 18 20 20 21 23 25 26 28 29 30 30 30 29 29 29 29 30 30 29 28 28 31 36 39 40 40 38 37 36
22 21 18 18 19 20 19 18 18 17 17 18 19 20 21 21 23 25 27 28 29 32 34 34 33 32 31 32 31 31 31 31 29 29 33 38 41 42 41 39 39 39
23 22 20 20 19 20 20 19 18 19 19 20 20 21 21 23 25 26 28 29 30 32 35 37 37 35 33 33 33 33 32 33 34 34 38 41 42 43 43 42 43 42
23 22 22 21 20 19 19 19 19 20 20 21 22 22 23 25 27 28 29 32 32 32 34 36 37 37 36 36 36 36 35 36 35 36 40 45 47 48 48 48 49 48
24 23 22 21 19 18 18 19 20 21 21 21 23 25 26 26 28 29 31 32 32 32 34 35 36 37 38 37 37 39 39 36 33 35 43 48 49 50 51 52 52 51
24 23 22 20 18 16 16 19 22 24 24 21 23 27 27 27 29 30 30 31 32 33 34 35 35 35 36 36 37 39 40 37 34 36 43 47 47 49 52 52 52 52
25 24 23 21 19 17 16 18 22 26 26 23 22 25 27 28 30 30 29 30 32 33 34 35 36 36 36 36 37 39 39 37 37 38 41 43 42 44 47 48 49 51
26 25 25 23 21 20 20 20 21 23 25 24 23 24 26 27 29 31 31 31 32 33 34 35 36 36 37 37 37 38 38 38 38 38 40 40 39 41 46 49 50 52
27 27 26 25 25 24 24 23 23 23 25 25 25 25 26 27 29 30 31 31 32 33 33 33 34 36 38 38 37 37 38 38 38 39 40 40 41 45 48 51 52 52
28 28 28 28 28 28 27 27 27 27 28 28 28 27 27 27 28 29 30 31 32 32 32 32 33 35 38 38 37 37 37 37 38 39 40 41 42 45 47 49 50 52
30 30 30 30 30 31 31 31 31 31 31 31 31 30 29 29 30 31 32 32 32 33 33 33 34 36 38 37 37 37 37 37 37 38 40 41 43 44 46 47 48 50
31 31 32 32 33 33 34 34 33 33 33 33 32 32 31 31 32 34 34 35 34 34 33 34 36 36 36 37 37 37 37 37 38 38 39 40 43 44 45 46 46 48
32 32 33 34 35 35 35 35 35 35 34 34 33 32 33 34 36 36 36 36 36 35 33 34 36 36 35 36 36 37 38 39 39 40 41 41 42 44 45 46 46 47
33 34 35 35 36 36 36 36 36 35 35 34 34 34 36 37 38 37 37 36 36 35 33 34 36 36 36 37 38 39 40 40 41 42 42 42 42 43 43 44 45 46
34 35 36 37 37 37 37 37 36 36 36 36 36 37 38 39 38 38 37 37 36 35 34 36 38 38 38 39 40 41 41 41 42 42 42 42 42 42 43 43 43 44
35 36 38 39 39 39 39 38 38 38 38 38 38 39 40 39 39 39 38 38 38 37 37 39 40 40 40 41 42 43 42 42 43 43 42 43 43 42 43 42 43 43
37 38 39 40 40 41 41 40 39 39 40 40 41 41 41 41 40 40 40 40 40 40 39 40 42 42 42 43 44 45 44 44 44 44 43 43 43 43 42 42 41 41
39 40 41 42 42 42 42 42 41 41 42 42 43 42 42 41 41 42 42 42 42 42 41 42 44 45 45 45 46 46 45 45 45 44 44 43 43 42 41 40 40 40
41 41 42 43 44 44 43 43 43 43 44 44 44 44 42 42 43 43 44 44 43 43 44 45 46 48 47 47 48 47 46 46 45 44 43 43 43 42 40 39 39 39
42 43 44 44 44 45 44 44 44 44 45 45 45 45 44 43 44 45 46 46 46 46 46 47 48 48 48 48 48 47 47 46 45 44 43 43 42 41 39 39 39 39
43 44 45 45 45 45 45 45 45 46 46 46 46 46 45 45 45 46 47 47 48 48 48 49 49 50 50 49 48 48 47 47 45 43 42 42 41 39 38 38 38 38
44 44 45 45 45 45 45 46 46 46 47 47 47 46 47 47 47 48 48 49 49 49 50 51 51 51 50 50 49 48 48 47 45 43 41 41 40 38 37 37 37 36
44 45 45 46 46 46 46 47 47 47 48 48 48 48 48 49 49 50 50 50 50 51 51 52 52 51 51 50 49 48 47 46 44 42 40 39 39 37 36 35 35 34
Wind_Direction
305 305 307 307 309 310 301 288 277 269 268 270 271 271 275 278 277 275 275 277 277 276 275 276 276 278 280 279 279 280 280 281 282 285 287 289 287 283 281 281 282 283
301 301 305 309 312 311 302 295 286 272 263 260 259 259 261 265 269 272 275 276 275 271 271 272 270 271 272 273 276 277 277 278 279 282 286 287 286 284 283 284 284 285
297 296 300 304 303 304 303 303 293 275 265 260 257 257 256 256 258 262 264 266 268 268 267 266 267 270 269 268 270 272 273 275 279 286 291 292 289 285 284 284 285 286
298 297 299 297 294 295 298 296 286 275 271 269 266 263 259 258 260 262 262 264 268 269 268 266 267 270 270 269 270 271 270 270 276 286 290 286 282 279 278 280 281 281
301 300 299 294 289 289 287 281 273 266 264 264 266 265 263 263 265 263 262 264 268 270 271 271 271 272 271 270 271 272 272 268 267 268 267 265 266 269 273 277 279 281
301 299 297 292 288 284 280 274 267 260 254 253 257 259 261 264 266 265 266 268 269 269 272 273 274 273 270 268 269 270 270 268 265 265 264 264 266 268 272 276 278 280
300 299 296 291 286 282 278 274 267 261 258 258 259 257 257 262 269 274 279 280 275 271 271 272 272 272 271 271 274 274 271 268 267 271 272 271 272 273 274 275 276 278
299 297 294 289 284 284 282 277 270 265 262 263 266 266 262 264 270 272 277 280 276 273 275 274 271 271 272 274 278 280 276 271 268 271 275 274 275 276 276 276 277 277
298 296 293 289 286 286 284 281 279 278 277 278 280 281 279 278 279 277 276 277 276 276 278 278 276 275 275 275 278 278 277 275 269 266 269 272 275 279 280 280 280 279
296 295 294 293 291 290 286 283 284 286 290 292 288 286 286 286 286 284 280 278 278 278 280 281 281 280 280 279 279 279 278 277 274 270 270 272 275 280 283 281 279 277
296 295 296 296 296 295 291 287 285 286 290 291 286 281 280 282 283 283 281 279 279 280 281 282 283 284 282 281 280 280 279 278 277 274 273 272 271 272 273 273 273 274
297 297 298 299 299 298 297 295 292 291 292 292 289 284 281 280 281 282 283 282 282 281 280 281 283 283 282 281 281 280 279 279 279 277 276 274 271 269 269 271 273 274
296 297 297 298 298 299 300 301 300 299 299 298 296 293 290 287 286 286 287 287 285 284 284 285 286 284 281 281 281 279 278 278 279 279 279 278 276 275 274 274 274 274
295 296 296 297 299 301 302 303 302 302 302 302 301 299 297 296 294 294 293 291 290 289 290 292 291 288 285 285 285 284 282 281 281 281 282 283 282 281 279 278 278 277
294 295 296 298 299 301 302 303 303 304 303 302 301 300 300 301 300 298 297 295 294 293 293 294 292 289 290 291 291 291 290 289 287 287 286 286 286 285 284 282 281 280
293 294 295 297 299 300 302 303 303 303 302 301 302 302 303 302 300 297 295 294 293 291 292 294 293 292 294 296 297 297 297 296 295 293 291 290 289 289 288 286 284 282
293 294 295 297 299 300 301 301 302 302 302 303 304 303 302 299 297 295 294 294 294 293 296 299 298 298 300 302 302 302 301 300 299 296 294 292 291 290 290 288 287 285
293 295 296 297 298 299 300 301 302 303 304 304 304 302 299 297 297 297 297 299 300 300 304 306 305 305 306 306 306 305 303 302 300 298 296 295 294 293 292 292 291 290
294 296 296 296 297 298 299 301 302 303 304 303 302 300 299 300 301 302 303 304 305 306 309 310 309 308 309 309 308 307 306 304 302 301 300 300 298 297 296 296 295 294
294 295 295 296 297 298 299 300 302 303 303 302 302 301 302 304 305 306 307 308 309 309 311 312 311 310 311 311 310 309 307 306 304 303 303 302 300 299 298 297 297 297
292 294 295 296 297 298 299 300 302 302 302 302 302 303 304 306 308 309 309 310 311 311 312 314 314 313 312 312 310 308 307 306 305 305 305 303 302 300 299 299 299 298
291 294 296 296 297 297 299 300 301 301 302 303 304 305 306 308 310 311 312 312 312 313 314 315 314 313 312 311 309 308 308 307 306 306 305 304 303 302 302 302 301 300
291 294 295 295 296 297 299 300 301 301 303 305 306 307 308 310 311 312 313 313 313 314 314 314 313 312 311 310 309 308 308 307 307 307 307 306 305 304 305 304 303 301
291 292 293 295 296 297 299 300 301 303 304 306 307 308 310 311 312 312 313 313 314 314 313 313 312 312 311 310 309 309 308 307 308 308 308 307 306 307 307 305 304 302
291 291 293 294 296 297 299 300 302 303 305 306 308 309 310 312 313 313 313 313 313 313 313 312 312 312 311 310 310 309 308 308 308 308 307 307 307 307 307 306 304 303
290 291 293 294 296 298 299 301 302 304 305 307 308 310 311 312 313 313 313 313 313 313 312 312 312 312 311 311 310 309 308 307 307 307 307 306 307 307 307 306 305 304
Height
10959 10958 10957 10955 10954 10954 10954 10955 10955 10954 10952 10951 10950 10950 10950 10948 10947 10946 10946 10945 10945 10944 10943 10943 10943 10943 10941 10940 10939 10939 10938 10938 10937 10936 10935 10934 10933 10931 10929 10927 10925 10924
10957 10956 10954 10953 10951 10951 10951 10952 10953 10952 10950 10949 10948 10948 10947 10946 10945 10944 10943 10942 10942 10941 10941 10940 10939 10938 10936 10935 10934 10934 10933 10933 10933 10933 10932 10930 10929 10927 10924 10923 10921 10920
10954 10953 10952 10951 10950 10949 10949 10949 10950 10950 10949 10947 10946 10946 10945 10944 10943 10941 10940 10940 10939 10938 10938 10937 10936 10934 10933 10932 10931 10930 10929 10929 10929 10930 10930 10928 10926 10924 10921 10919 10917 10916
10952 10950 10949 10949 10948 10948 10948 10947 10947 10948 10947 10945 10944 10943 10941 10940 10940 10938 10937 10936 10936 10935 10934 10933 10933 10932 10931 10930 10928 10927 10927 10927 10926 10926 10926 10925 10922 10918 10915 10914 10913 10912
10949 10948 10947 10947 10946 10946 10946 10945 10945 10945 10944 10942 10940 10939 10938 10936 10936 10935 10935 10935 10934 10932 10930 10930 10929 10929 10929 10927 10926 10925 10924 10923 10921 10919 10917 10916 10913 10910 10909 10910 10910 10910
10946 10946 10945 10945 10945 10945 10945 10944 10943 10942 10941 10939 10938 10936 10935 10934 10932 10932 10932 10932 10931 10929 10927 10927 10926 10925 10925 10923 10922 10922 10920 10918 10916 10914 10913 10911 10910 10908 10907 10907 10906 10906
10945 10944 10943 10943 10943 10943 10943 10941 10940 10939 10938 10936 10935 10934 10933 10932 10931 10929 10929 10928 10927 10926 10925 10924 10923 10921 10920 10918 10918 10917 10916 10914 10914 10914 10910 10908 10907 10905 10904 10903 10901 10900
10943 10942 10942 10942 10942 10941 10941 10939 10937 10936 10935 10933 10932 10931 10930 10930 10929 10928 10926 10925 10923 10922 10921 10920 10919 10918 10916 10915 10914 10911 10910 10910 10912 10910 10903 10898 10900 10901 10899 10898 10896 10895
10941 10940 10940 10940 10940 10939 10939 10937 10935 10933 10932 10930 10929 10928 10926 10925 10925 10924 10923 10921 10919 10918 10917 10916 10915 10913 10912 10911 10909 10905 10904 10905 10906 10905 10898 10896 10898 10898 10895 10895 10893 10888
10939 10938 10938 10937 10937 10937 10937 10935 10933 10930 10929 10928 10928 10926 10924 10922 10920 10919 10919 10918 10916 10914 10913 10911 10910 10908 10907 10906 10904 10901 10900 10900 10901 10900 10897 10895 10894 10891 10890 10890 10888 10881
10937 10936 10935 10935 10934 10933 10933 10932 10931 10929 10927 10926 10925 10924 10922 10920 10917 10915 10914 10913 10912 10910 10909 10907 10905 10903 10901 10899 10898 10897 10896 10895 10895 10893 10891 10890 10886 10883 10882 10882 10880 10876
10934 10934 10933 10932 10931 10930 10929 10928 10927 10926 10924 10922 10921 10919 10918 10916 10914 10911 10910 10908 10907 10906 10905 10904 10902 10899 10896 10894 10893 10893 10892 10890 10888 10886 10884 10883 10880 10877 10876 10874 10872 10870
10932 10931 10930 10929 10927 10926 10925 10924 10922 10921 10919 10917 10916 10914 10913 10911 10909 10908 10906 10904 10903 10902 10901 10900 10898 10894 10890 10889 10889 10888 10886 10885 10882 10880 10877 10875 10873 10870 10868 10866 10864 10861
10929 10928 10927 10925 10923 10922 10921 10920 10918 10917 10915 10913 10911 10910 10908 10906 10904 10903 10901 10900 10899 10897 10896 10895 10891 10887 10885 10884 10883 10881 10880 10878 10876 10873 10871 10868 10865 10862 10860 10858 10856 10852
10926 10925 10923 10921 10920 10919 10918 10916 10914 10912 10911 10909 10907 10906 10904 10902 10900 10899 10897 10896 10894 10893 10892 10889 10885 10882 10880 10878 10876 10874 10872 10870 10868 10866 10864 10861 10858 10854 10852 10850 10848 10845
10923 10921 10920 10918 10917 10916 10914 10912 10910 10909 10907 10905 10903 10901 10899 10897 10896 10895 10893 10892 10890 10889 10887 10883 10879 10876 10875 10872 10870 10868 10865 10863 10861 10859 10856 10854 10851 10848 10845 10842 10839 10837
10919 10918 10917 10915 10913 10912 10910 10908 10906 10905 10903 10901 10900 10897 10895 10893 10892 10891 10889 10887 10885 10883 10881 10877 10873 10870 10869 10866 10864 10862 10860 10858 10855 10852 10849 10847 10844 10841 10838 10835 10832 10829
10916 10914 10913 10911 10910 10908 10906 10904 10903 10901 10899 10897 10895 10893 10891 10889 10888 10885 10883 10881 10878 10877 10875 10871 10867 10865 10862 10860 10858 10856 10854 10851 10848 10845 10843 10839 10837 10834 10831 10828 10825 10822
10912 10910 10909 10907 10906 10904 10902 10901 10899 10897 10895 10893 10891 10889 10886 10885 10883 10880 10877 10875 10872 10871 10869 10865 10861 10859 10856 10854 10851 10849 10846 10844 10841 10838 10835 10832 10829 10826 10823 10821 10818 10815
10908 10907 10905 10904 10902 10900 10898 10897 10895 10893 10890 10888 10886 10884 10882 10880 10877 10875 10872 10869 10867 10865 10863 10860 10856 10852 10850 10847 10845 10842 10839 10837 10834 10831 10828 10825 10822 10820 10817 10815 10812 10809
10904 10903 10901 10900 10898 10896 10894 10892 10890 10888 10886 10884 10881 10879 10877 10875 10872 10869 10867 10864 10862 10859 10857 10854 10850 10846 10844 10841 10838 10836 10833 10830 10827 10825 10821 10818 10816 10813 10811 10809 10806 10803
10900 10898 10897 10895 10893 10891 10890 10888 10886 10883 10881 10879 10877 10874 10872 10870 10867 10864 10861 10858 10856 10854 10851 10848 10845 10841 10838 10836 10832 10829 10827 10824 10821 10819 10815 10812 10809 10807 10805 10802 10799 10797
10895 10894 10892 10890 10888 10887 10885 10883 10881 10879 10876 10874 10872 10869 10867 10865 10862 10859 10856 10853 10850 10848 10845 10842 10840 10836 10833 10830 10827 10824 10821 10818 10815 10813 10809 10806 10803 10801 10798 10796 10793 10791
10891 10889 10887 10886 10884 10883 10881 10878 10876 10874 10871 10869 10867 10864 10862 10859 10857 10854 10851 10848 10845 10842 10839 10836 10833 10830 10827 10824 10821 10818 10815 10811 10809 10806 10803 10800 10798 10795 10793 10790 10788 10785
10887 10885 10883 10881 10880 10878 10876 10874 10871 10869 10867 10864 10862 10860 10857 10854 10851 10848 10845 10842 10840 10837 10833 10830 10827 10824 10821 10817 10815 10812 10808 10805 10803 10801 10798 10795 10792 10790 10788 10785 10783 10781
10883 10881 10879 10877 10876 10874 10872 10869 10867 10865 10862 10860 10857 10854 10851 10848 10845 10842 10839 10836 10834 10831 10827 10824 10821 10817 10814 10812 10809 10806 10802 10799 10797 10795 10793 10790 10788 10786 10784 10781 10779 10777